Regional Weather Roundup
Issued by NWS

Home | Current Version | Previous Version | Graphics & Text | Print | Product List | Glossary On
Versions: 1 2 3 4 5 6 7 8 9 10 11 12 13 14 15 16 17 18 19 20 21 22 23 24 25 26 27 28 29 30 31 32 33 34 35 36 37 38 39 40 41 42 43 44 45 46 47 48 49 50
000
ASUS43 KLSX 200459
RWRMO

WEATHER SUMMARY FOR MISSOURI
NATIONAL WEATHER SERVICE SPRINGFIELD MO
1200 AM CDT WED AUG 20 2014

NOTE: "FAIR" INDICATES FEW OR NO CLOUDS BELOW 12,000 FEET WITH NO
       SIGNIFICANT WEATHER AND/OR OBSTRUCTIONS TO VISIBILITY.
       CURRENT SKY AND/OR WEATHER CONDITIONS ARE NOT AVAILABLE FOR
       CHILLICOTHE AND FARMINGTON.

MOZ001>031-035>038-043-044-053-054-200600-
...NORTHERN AND WESTERN MISSOURI...

CITY           SKY/WX    TMP DP  RH WIND       PRES   REMARKS
KANSAS CTY INT PTCLDY    79  72  79 S9        29.82R
KANSAS C DTWN  CLEAR     82  70  66 S7        29.81R
LEE`S SUMMIT   CLEAR     81  71  71 S7        29.84R
ST JOSEPH      PTCLDY    77  72  84 SE3       29.81R
CHILLICOTHE      N/A     73  71  93 CALM      29.84R
KIRKSVILLE     CLEAR     73  70  90 E6        29.85S

$$
MOZ066>068-077>081-088>096-101>105-200600-
...SOUTHWEST MISSOURI...

CITY           SKY/WX    TMP DP  RH WIND       PRES   REMARKS
SPRINGFIELD    CLEAR     77  66  68 SW6       29.90S
JOPLIN         CLEAR     81  70  69 S9        29.88S

$$
MOZ032>034-039>042-045>050-055>058-069>072-200600-
...CENTRAL MISSOURI...

CITY           SKY/WX    TMP DP  RH WIND       PRES   REMARKS
COLUMBIA       CLEAR     75  72  90 S3        29.86R
JEFFERSON CITY CLEAR     74  71  91 CALM      29.84R
ROLLA          CLEAR     73  67  81 SW5       29.86S
SEDALIA        CLEAR     75  71  87 S7        29.86R
OSAGE BEACH    CLEAR     73  70  88 CALM      29.87R

$$
MOZ051-052-059>065-200600-
...EAST CENTRAL MISSOURI...

CITY           SKY/WX    TMP DP  RH WIND       PRES   REMARKS
ST LOUIS INTL  NOT AVBL
SPIRIT OF STL  CLEAR     72  70  93 CALM      29.83R
ST CHARLES     CLEAR     73  71  93 CALM      29.82S

$$
MOZ072>076-082>087-097>100-106>115-200600-
...SOUTH CENTRAL AND SOUTHEAST MISSOURI...

CITY           SKY/WX    TMP DP  RH WIND       PRES   REMARKS
CAPE GIRARDEAU CLEAR     69  67  93 CALM      29.84S
FARMINGTON     CLEAR     72  68  88 CALM      29.88S
POPLAR BLUFF   CLEAR     79  72  79 SW9       29.83S
WEST PLAINS    CLEAR     78  70  76 SW7       29.92R

$$



USA.gov is the U.S. government's official web portal to all federal, state and local government web resources and services.